Regional Weather Roundup
Issued by NWS

Home | Current Version | Previous Version | Text Only | Print | Product List | Glossary Off
Versions: 1 2 3 4 5 6 7 8 9 10 11 12 13 14 15 16 17 18 19 20 21 22 23 24 25 26 27 28 29 30 31 32 33 34 35 36 37 38 39 40 41 42 43 44 45 46 47 48 49 50

000
ASUS43 KFSD 252302
RWRSD

WEATHER ROUNDUP FOR SOUTH DAKOTA
NATIONAL WEATHER SERVICE SIOUX FALLS SD
600 PM CDT SAT MAR 25 2017

NOTE: "FAIR" INDICATES FEW OR NO CLOUDS BELOW 12,000 FEET WITH NO
SIGNIFICANT WEATHER AND/OR OBSTRUCTIONS TO VISIBILITY.


SDZ001>005-009-010-012>017-260000-
NORTHWEST AND NORTH CENTRAL SOUTH DAKOTA

CITY           SKY/WX    TMP DP  RH WIND       PRES   REMARKS
BUFFALO          N/A     60  32  34 NE12      29.80S
FAITH            N/A     58  28  32 MISG      29.83F
MOBRIDGE       SUNNY     58  28  32 SE14      29.88F
$$

SDZ012>016-024>037-041>051-057-063-072>074-260000-
SOUTHWEST AND SOUTH CENTRAL SOUTH DAKOTA

CITY           SKY/WX    TMP DP  RH WIND       PRES   REMARKS
RAPID CTY ARPT CLOUDY    63  30  28 NW13      29.81F
PIERRE         PTSUNNY   56  31  38 E16       29.89F
CUSTER         CLOUDY    53  27  36 E6        29.87S
ELLSWORTH AFB  PTSUNNY   61  34  36 NW14      29.82S
PHILIP         MOSUNNY   66  20  17 SE15      29.81F
PINE RIDGE     MOSUNNY   67  32  27 S8        29.80F
SPEARFISH      FAIR      59  36  41 NE8       29.86S
WINNER         FAIR      59  32  36 SE14      29.90F
$$

SDZ004>011-016>023-039-040-260000-
NORTHEAST SOUTH DAKOTA

CITY           SKY/WX    TMP DP  RH WIND       PRES   REMARKS
ABERDEEN       CLOUDY    48  32  53 SE13      29.98F
WATERTOWN      CLOUDY    36  33  89 VRB7      30.00F
SISSETON         N/A     39  34  82 S12       30.04F
$$

SDZ017-020-022-023-036>040-048>070-260000-
SOUTHEAST SOUTH DAKOTA

CITY           SKY/WX    TMP DP  RH WIND       PRES   REMARKS
SIOUX FALLS    CLOUDY    42  38  85 E9        30.00S
HURON          SUNNY     47  36  65 E9        29.98F
CHAMBERLAIN    SUNNY     52  38  58 E14       29.93F
MITCHELL       CLOUDY    46  37  71 E14       29.99S
YANKTON        CLOUDY    43  37  81 NE9       29.98S
$$

ABBREVIATIONS USED IN REMARKS
   TC - TEMPERATURE IN CELSIUS
  WCI - WIND CHILL INDEX
   HX - HEAT INDEX
  VSB - VISIBILITY





USA.gov is the U.S. government's official web portal to all federal, state and local government web resources and services.